Home   Weather   Grise Fiord   Past weeks
Flag for Canada

Past Weather in Grise Fiord, Nunavut, Canada — Yesterday and Last 2 Weeks

Now
30 °F

Chilly.


Feels Like: 22 °F
Forecast: 29 / 24 °F
Wind: 8 mph from Southeast

Location: Kitsissut (Carey Oeer)

Current Time: Jun 1, 2020 at 4:50:30 pm

Latest Report: Jun 1, 2020 at 3:00 pm


Visibility: N/A

Pressure: 30.10 "Hg

Humidity: 80%

Dew Point: 25 °F

Location of Grise FiordLocation

Past Weather in Grise Fiord — Graph

°F

Grise Fiord Temperature Yesterday

Maximum temperature yesterday: 30 °F (at 4:00 pm)
Minimum temperature yesterday: 26 °F (at 3:00 am)
Average temperature yesterday: 28 °F

High & Low Weather Summary for the Past Weeks

 TemperatureHumidityPressure
High34 °F (May 22, 7:00 am)97% (May 18, 4:00 am)30.17 "Hg (May 18, 4:00 am)
Low22 °F (May 18, 2:00 am)66% (May 20, 4:00 pm)29.50 "Hg (May 25, 4:00 am)
Average28 °F87%29.82 "Hg
* Reported May 17 3:00 pm — Jun 1 3:00 pm, Grise Fiord. Weather by CustomWeather, © 2020

Note: Actual official high and low records may vary slightly from our data, if they occured in-between our weather recording intervals... More about our weather records

Grise Fiord Weather History for the Previous 24 Hours

Scroll right to see more
 ConditionsComfort  
Time TempWeatherWind HumidityBarometerVisibility
3:00 pm
Mon, Jun 1
30 °FChilly.8 mph80%30.10 "HgN/A
2:00 pm31 °FChilly.6 mph75%30.09 "HgN/A
1:00 pm30 °FChilly.6 mph76%30.09 "HgN/A
12:00 pm29 °FChilly.7 mph82%30.08 "HgN/A
11:00 am29 °FChilly.7 mph85%30.08 "HgN/A
10:00 am28 °FChilly.9 mph83%30.08 "HgN/A
9:00 am29 °FChilly.9 mph87%30.07 "HgN/A
8:00 am28 °FChilly.13 mph90%30.07 "HgN/A
7:00 am28 °FChilly.12 mph92%30.07 "HgN/A
6:00 am28 °FChilly.12 mph91%30.07 "HgN/A
5:00 am28 °FChilly.9 mph93%30.06 "HgN/A
4:00 am28 °FChilly.7 mph91%30.05 "HgN/A
3:00 am28 °FChilly.9 mph83%30.05 "HgN/A
2:00 am29 °FChilly.7 mph89%30.04 "HgN/A
1:00 am29 °FChilly.7 mph85%30.03 "HgN/A
12:00 am29 °FChilly.6 mph86%30.03 "HgN/A
11:00 pm
Sun, May 31
29 °FChilly.3 mph82%30.03 "HgN/A
10:00 pm30 °FChilly.3 mph79%30.02 "HgN/A
9:00 pm29 °FChilly.5 mph81%30.02 "HgN/A
8:00 pm30 °FChilly.2 mph79%30.01 "HgN/A
7:00 pm30 °FChilly.2 mph80%30.01 "HgN/A
6:00 pm30 °FChilly.3 mph79%30.00 "HgN/A
5:00 pm30 °FChilly.3 mph79%29.99 "HgN/A
4:00 pm30 °FChilly.1 mph77%29.98 "HgN/A
Weather by CustomWeather, © 2020

See weather overview

Advertising